Vertical_Velocity
4 -0 2 -1 -3 -2 -1 -2 -2 -1 -1 -2 1 4 -3 -4 -4 2 0 4 -2 -1 1 7 -0 -1 1 0 -2 -3 9 4 8 -0 1 1 -3 -0 -1 -1 -2 -0 -0
3 1 -2 2 1 -2 -7 0 -1 -3 -3 -1 -2 -1 -1 0 -3 -1 -0 2 1 2 3 1 -1 -2 1 1 -2 1 -6 36 21 -2 2 2 0 -0 -1 0 -2 -1 -0
-0 2 -4 0 4 -3 -1 -5 0 0 -1 -3 2 -1 -0 1 1 -6 0 -1 0 -3 1 1 -3 -1 -2 1 1 2 0 -9 76 2 3 2 -2 -2 -1 -0 1 -3 1
-1 -3 -1 -0 -2 2 -2 -2 -2 -2 -1 0 -3 0 -2 -0 -0 -3 0 2 -1 -4 -3 -2 -1 -3 -4 1 -1 -1 5 1 8 7 -3 1 -3 -2 -1 -2 1 -0 1
-2 -6 -1 1 -3 -7 11 -1 -3 -0 1 0 -2 -3 1 -2 -2 -3 -2 2 2 -2 -1 -1 -3 -3 -4 1 4 -0 -3 -2 -8 6 -1 -0 -2 -2 1 -1 -1 -2 0
-13 -8 -0 2 -4 -12 -4 8 4 -3 -4 -0 1 1 -1 -0 -1 -2 -1 -1 2 1 -4 -4 -2 -4 -1 -4 -1 -0 1 -2 4 13 -1 -2 -1 -0 0 -2 -0 0 -0
40 -12 -5 11 5 -10 -5 -5 5 0 -4 -4 -5 0 1 -2 1 -2 -3 -1 0 -2 -1 -2 -1 -5 -2 -2 -1 -1 1 -4 -3 -2 -3 0 2 -0 2 -0 -1 0 -2
1 10 18 -1 1 10 24 -7 5 11 5 -3 -2 2 2 -0 1 0 -2 -3 -0 1 -4 -5 -2 -2 -4 -1 -3 1 -1 4 -6 -1 -3 2 0 -1 0 -1 2 -0 -0
2 2 4 -4 11 10 39 38 9 -5 14 8 2 -9 -0 3 -5 0 2 -1 -2 2 1 -2 -2 1 1 -1 -2 -1 -1 0 59 2 5 3 -3 0 1 -2 0 2 -1
-2 -4 -2 2 2 4 7 15 -7 -26 18 1 -2 1 -0 0 -7 -2 2 2 0 1 2 1 -3 1 1 0 -1 -7 4 10 4 6 5 5 5 -1 2 -1 0 -1 1
-5 1 -6 -7 0 -4 0 6 6 10 -6 7 4 -0 3 -0 -5 -3 1 3 3 3 1 0 1 -0 3 -1 -1 -6 -0 2 1 2 21 -2 7 0 3 -1 -1 2 -0
-6 2 -4 -9 -6 0 2 6 1 1 -1 -1 -1 2 -1 -6 9 -4 -1 -2 1 3 -0 1 -0 -4 -1 -1 -1 -7 -0 2 9 19 3 25 0 0 1 -0 2 1 1
-4 3 -4 -2 -5 2 1 4 4 7 9 -2 2 5 -2 -1 1 -1 -5 -2 0 2 2 -1 -3 -1 -2 -1 -2 0 -0 -2 0 9 7 4 4 5 -1 0 1 3 2
2 -1 -2 -6 1 -5 4 3 5 14 0 2 -2 -3 2 3 -2 3 -3 -8 -4 -1 4 3 -3 -1 -1 -2 -1 -1 -2 -1 1 -1 -3 6 4 7 9 -2 -1 0 2
3 2 -2 -9 -1 -8 5 6 -4 -3 21 6 -8 -5 -1 1 -4 1 1 -4 -4 0 2 3 -2 -3 -0 2 -2 -0 -1 -4 -1 -2 0 -2 -2 4 2 3 -1 -0 -1
3 5 3 -2 -3 -7 3 9 4 -1 -0 -7 -0 -3 7 1 14 11 -2 -4 2 4 -2 1 -2 -4 -2 1 1 4 3 -1 -4 -3 -1 -0 3 -0 -9 -4 6 5 2
-0 -2 -8 -4 -2 3 -3 4 7 -4 -3 -3 -1 -3 3 -4 14 4 -0 -3 -1 -7 20 -2 -1 -4 -4 -1 -3 1 3 3 2 0 0 1 -1 1 1 3 2 -0 2
-4 -1 1 -1 -1 -1 4 3 2 3 7 -4 -4 -3 1 3 7 4 1 0 -3 22 15 -1 -4 1 -2 -2 -4 -4 -2 -0 -1 -0 -1 1 -3 2 -1 -1 -1 -2 10
1 -2 -0 2 2 -4 -1 0 -1 -4 10 0 -5 2 5 5 7 -4 2 -2 -3 12 13 -1 -3 -4 -1 2 -2 -1 1 -2 0 1 2 -3 -0 1 -2 0 -1 1 1
-5 -3 -5 3 -1 1 -7 3 6 6 10 5 5 18 12 2 0 7 1 17 3 3 6 -0 -5 -6 -1 1 0 3 4 -0 -2 -1 0 2 -0 -0 1 -6 1 3 -3
-3 -2 7 -1 3 3 5 2 16 15 20 18 -1 -8 4 -0 13 7 12 -1 4 -2 -2 1 3 -5 -2 -0 -1 2 2 -0 0 2 -0 -2 -2 -0 -1 2 2 2 -0
-2 -3 13 -6 1 -4 3 7 22 -1 3 -3 3 2 2 -2 -3 4 4 3 -5 5 -1 7 0 1 -0 -1 1 3 1 0 -1 -4 -1 -5 -1 -2 -2 1 3 3 2
-3 -2 -6 -1 -3 7 -8 0 -1 148 3 -2 -4 5 3 5 -2 -3 -5 -4 -3 2 8 0 -2 -2 -2 2 -0 2 -1 -1 -1 1 -4 -1 -2 -4 -2 -0 -2 -3 -1
3 -2 -2 44 -1 0 10 -1 -2 -4 0 -1 -2 1 1 -1 -0 -3 -0 -1 -1 4 -1 1 0 2 1 -0 1 -1 -2 -5 -2 -2 -4 -5 -1 -1 -1 2 4 1 2
2 2 1 -1 0 -0 -0 -9 8 3 1 1 7 7 5 -2 1 1 1 1 2 3 -1 -2 -0 5 1 -0 1 -0 0 -1 -3 0 -2 -4 -1 2 4 -1 2 3 -1
6 5 4 4 6 -0 -4 -6 18 5 8 6 3 10 30 8 42 -11 -4 -1 -6 1 2 2 -1 -1 1 -0 2 4 -1 -1 -0 -1 -1 -4 -3 -2 -2 2 2 8 12
Height
5801 5802 5803 5803 5803 5805 5806 5808 5809 5810 5812 5811 5812 5813 5811 5810 5809 5807 5806 5806 5806 5805 5804 5805 5804 5804 5801 5802 5802 5802 5803 5801 5805 5809 5812 5816 5819 5821 5824 5826 5827 5828 5830
5793 5794 5796 5797 5796 5797 5799 5799 5801 5803 5805 5805 5805 5805 5806 5806 5804 5801 5802 5801 5803 5800 5799 5800 5799 5798 5797 5797 5796 5796 5793 5794 5800 5803 5806 5810 5814 5817 5819 5822 5824 5824 5827
5784 5786 5788 5788 5789 5789 5790 5790 5792 5794 5796 5798 5799 5798 5799 5800 5798 5796 5796 5795 5795 5794 5793 5793 5793 5792 5793 5791 5790 5791 5791 5791 5781 5796 5801 5804 5809 5813 5815 5817 5819 5820 5822
5775 5777 5778 5780 5780 5781 5783 5784 5783 5785 5786 5788 5790 5791 5791 5791 5791 5790 5790 5791 5786 5784 5785 5784 5782 5783 5784 5784 5783 5783 5784 5785 5784 5791 5796 5799 5804 5807 5811 5813 5815 5816 5817
5763 5767 5769 5771 5771 5771 5774 5775 5775 5776 5776 5778 5779 5782 5783 5784 5783 5784 5784 5785 5784 5780 5779 5777 5777 5776 5776 5774 5775 5778 5778 5779 5781 5782 5788 5794 5798 5801 5805 5808 5811 5813 5813
5749 5753 5758 5761 5761 5762 5764 5765 5765 5766 5767 5767 5769 5771 5774 5776 5775 5777 5777 5777 5779 5776 5774 5772 5772 5771 5769 5768 5766 5769 5771 5771 5773 5774 5781 5788 5791 5795 5799 5802 5805 5808 5809
5740 5742 5745 5749 5751 5751 5752 5753 5753 5755 5756 5757 5757 5761 5764 5767 5768 5768 5768 5770 5771 5771 5770 5767 5767 5766 5763 5763 5763 5763 5763 5764 5765 5768 5774 5780 5784 5789 5793 5796 5799 5802 5804
5732 5733 5734 5736 5739 5741 5738 5739 5740 5743 5746 5747 5746 5749 5753 5758 5760 5760 5760 5762 5763 5764 5763 5761 5761 5760 5758 5757 5758 5757 5756 5756 5759 5759 5767 5774 5778 5782 5787 5791 5794 5796 5798
5720 5722 5725 5727 5729 5727 5720 5724 5727 5731 5733 5735 5736 5737 5741 5747 5751 5751 5752 5754 5754 5757 5757 5755 5755 5755 5753 5751 5751 5751 5749 5751 5749 5755 5760 5765 5771 5775 5779 5784 5788 5790 5793
5706 5707 5708 5711 5714 5717 5716 5718 5715 5718 5720 5723 5726 5727 5731 5735 5740 5742 5742 5744 5745 5747 5749 5750 5748 5748 5747 5746 5745 5743 5742 5743 5746 5748 5751 5758 5762 5767 5772 5777 5781 5783 5785
5692 5694 5695 5697 5700 5702 5703 5704 5707 5708 5711 5715 5717 5718 5719 5723 5728 5733 5734 5735 5736 5738 5739 5742 5742 5740 5740 5740 5739 5737 5735 5736 5738 5742 5746 5748 5755 5761 5766 5771 5774 5775 5778
5678 5681 5682 5683 5686 5688 5690 5692 5694 5694 5699 5702 5704 5706 5709 5713 5719 5722 5724 5725 5726 5729 5731 5733 5735 5733 5732 5733 5733 5732 5732 5731 5734 5738 5740 5741 5750 5754 5758 5762 5765 5767 5770
5663 5665 5665 5667 5670 5673 5677 5679 5678 5680 5682 5686 5690 5695 5698 5702 5707 5709 5712 5715 5717 5720 5724 5725 5726 5727 5725 5724 5725 5726 5726 5728 5730 5733 5736 5739 5742 5745 5748 5753 5756 5758 5761
5648 5648 5649 5651 5653 5657 5661 5664 5665 5667 5669 5673 5677 5680 5686 5690 5694 5699 5701 5703 5705 5709 5716 5717 5716 5719 5719 5718 5717 5719 5719 5720 5722 5725 5726 5728 5731 5735 5739 5743 5746 5750 5752
5631 5631 5632 5634 5636 5638 5643 5646 5649 5653 5655 5660 5666 5668 5673 5679 5681 5684 5690 5693 5694 5698 5706 5709 5707 5709 5711 5713 5712 5713 5714 5713 5714 5716 5717 5719 5720 5725 5729 5733 5736 5740 5742
5613 5613 5613 5614 5616 5618 5624 5629 5633 5638 5641 5648 5653 5655 5660 5666 5669 5675 5679 5684 5686 5688 5691 5700 5700 5700 5701 5704 5705 5706 5709 5708 5708 5708 5709 5711 5713 5717 5719 5721 5726 5730 5732
5593 5593 5591 5590 5592 5595 5603 5609 5616 5623 5627 5636 5640 5646 5649 5653 5659 5665 5671 5676 5677 5678 5680 5686 5689 5692 5692 5694 5695 5696 5699 5701 5702 5702 5703 5705 5706 5707 5709 5712 5715 5719 5722
5573 5572 5572 5571 5573 5576 5582 5589 5597 5606 5614 5621 5629 5633 5639 5644 5647 5655 5662 5666 5664 5662 5665 5674 5678 5682 5683 5685 5685 5687 5689 5691 5692 5693 5694 5694 5697 5698 5700 5701 5704 5708 5711
5559 5557 5556 5555 5558 5562 5566 5574 5579 5589 5600 5607 5614 5623 5628 5632 5635 5643 5649 5653 5652 5654 5659 5666 5669 5669 5672 5676 5675 5676 5678 5681 5680 5681 5683 5686 5686 5687 5688 5690 5693 5696 5698
5548 5547 5545 5544 5545 5547 5552 5557 5563 5574 5585 5594 5600 5609 5616 5622 5627 5631 5636 5640 5641 5644 5649 5653 5658 5660 5661 5666 5666 5668 5669 5669 5670 5670 5671 5673 5674 5676 5678 5681 5681 5684 5686
5538 5539 5537 5535 5534 5536 5541 5548 5556 5565 5574 5581 5590 5600 5608 5611 5615 5619 5623 5627 5632 5635 5637 5642 5645 5647 5652 5655 5655 5657 5659 5658 5660 5661 5662 5663 5665 5665 5667 5668 5670 5671 5674
5531 5532 5531 5528 5525 5526 5532 5539 5548 5555 5563 5571 5582 5590 5597 5602 5605 5608 5613 5618 5623 5623 5625 5630 5631 5637 5641 5643 5644 5646 5648 5647 5648 5650 5650 5649 5649 5650 5653 5656 5659 5661 5663
5525 5528 5527 5526 5525 5528 5530 5528 5542 5534 5557 5564 5574 5580 5586 5590 5596 5600 5605 5608 5612 5613 5617 5619 5622 5626 5629 5631 5633 5636 5635 5637 5638 5638 5637 5636 5637 5638 5641 5644 5647 5649 5651
5521 5523 5524 5520 5525 5530 5534 5537 5542 5545 5551 5557 5564 5568 5575 5581 5585 5590 5594 5597 5600 5604 5606 5609 5610 5614 5618 5620 5622 5624 5625 5626 5625 5626 5627 5626 5627 5629 5631 5632 5635 5637 5639
5519 5518 5520 5522 5525 5528 5531 5537 5538 5542 5545 5551 5555 5562 5566 5571 5576 5580 5583 5586 5590 5594 5597 5598 5599 5603 5605 5607 5611 5613 5613 5615 5615 5616 5616 5617 5617 5618 5619 5620 5623 5626 5628
5516 5516 5517 5519 5521 5524 5527 5530 5533 5534 5538 5543 5548 5549 5556 5561 5563 5569 5571 5573 5577 5581 5584 5586 5588 5590 5593 5595 5598 5600 5601 5602 5603 5603 5606 5605 5606 5607 5607 5609 5611 5614 5614